Home   Weather   Bukavu   Past weeks

Flag for Congo Dem. Rep. Past Weather in Bukavu, Congo Dem. Rep. — Yesterday and Last 2 Weeks

Now
57 °F

Fog.


Feels Like: 57 °F
Forecast: 52 / 74 °F
Wind: 2 mph from North

Location: Kigali Airport

Current Time: Dec 11, 2016 at 6:10:50 am

Latest Report: Dec 11, 2016 at 5:30 am


Visibility: 0 mi

Pressure: 30.12 "Hg (24.57 "Hg at 1710m altitude)

Humidity: 100%

Dew Point: 57 °F

Location of BukavuLocation

Past Weather in Bukavu — Graph

°F

Bukavu Temperature Yesterday

Maximum temperature yesterday: 73 °F (at 11:00 am)
Minimum temperature yesterday: 61 °F (at 9:30 pm)
Average temperature yesterday: 64 °F

High & Low Weather Summary for the Past Weeks

 TemperatureHumidityPressure
High81 °F (Nov 26, 4:00 pm)100% (Nov 26, 6:00 am)30.24 "Hg (Nov 26, 6:00 am)
Low57 °F (Dec 11, 4:30 am)39% (Dec 6, 10:30 am)29.95 "Hg (Nov 28, 3:30 pm)
Average68 °F78%30.11 "Hg
* Reported Nov 26 4:00 am — Dec 11 4:30 am, Bukavu, Weather by CustomWeather, © 2016

Note: Actual official high and low records may vary slightly from our data, if they occured in-between our weather recording intervals... More about our weather records

Advertising

Bukavu Weather History for the Previous 24 Hours

Scroll right to see more
 ConditionsComfort  
Time TempWeatherWind HumidityBarometerVisibility
4:30 am
Sun, Dec 11
57 °FFog.No wind100%30.09 "Hg0 mi
4:00 am59 °FFog.No wind94%30.09 "Hg0 mi
3:30 am59 °FFog.2 mph94%30.09 "Hg0 mi
3:00 am59 °FFog.3 mph94%30.07 "Hg0 mi
2:30 am59 °FFog.2 mph94%30.09 "Hg1 mi
2:00 am59 °FFog.2 mph94%30.09 "HgN/A
1:30 am59 °FFog.5 mph100%30.09 "Hg0 mi
1:00 am59 °FFog.3 mph100%30.12 "Hg0 mi
12:30 am59 °FFog.2 mph94%30.12 "Hg0 mi
12:00 am59 °FFog.2 mph100%30.15 "Hg0 mi
11:30 pm
Sat, Dec 10
61 °FPassing clouds.2 mph94%30.15 "HgN/A
11:00 pm61 °FPassing clouds.1 mph94%30.15 "Hg4 mi
10:30 pm61 °FPassing clouds.2 mph94%30.18 "Hg6 mi
10:00 pm63 °FPassing clouds.3 mph94%30.18 "Hg6 mi
9:30 pm61 °FPassing clouds.3 mph100%30.18 "Hg6 mi
9:00 pm63 °FPassing clouds.2 mph88%30.18 "HgN/A
8:30 pm63 °FPassing clouds.3 mph94%30.18 "HgN/A
8:00 pm63 °FPassing clouds.No wind88%30.15 "HgN/A
7:30 pm63 °FPassing clouds.5 mph88%30.12 "HgN/A
6:30 pm64 °FPassing clouds.2 mph83%30.09 "HgN/A
6:00 pm64 °FPassing clouds.5 mph83%30.09 "HgN/A
5:30 pm64 °FScattered clouds.5 mph88%30.09 "HgN/A
5:00 pm64 °FScattered clouds.5 mph94%N/AN/A
4:30 pm66 °FScattered clouds.3 mph83%30.09 "HgN/A
4:00 pm64 °FScattered clouds.6 mph88%30.09 "HgN/A
3:30 pm64 °FPartly sunny.6 mph88%30.09 "HgN/A
3:00 pm64 °FPartly sunny.5 mph88%30.09 "HgN/A
2:30 pm64 °FLight rain. Partly sunny.5 mph88%30.12 "HgN/A
2:00 pm63 °FThunderstorms. Partly sunny.6 mph94%30.12 "HgN/A
11:00 am73 °FScattered clouds.7 mph74%30.12 "HgN/A
10:00 am70 °FBroken clouds.3 mph73%30.15 "HgN/A
9:00 am68 °FBroken clouds.5 mph78%30.15 "HgN/A
8:00 am68 °FMild.7 mph83%30.12 "HgN/A
7:00 am64 °FScattered clouds.3 mph88%30.12 "HgN/A
Weather by CustomWeather, © 2016

See weather overviewHow to use our weather pages